timestamp,waterbody_station,lease,latitude,longitude,deployment_start_date,deployment_end_date,sensor,depth,mooring,Temperature_degrees Celsius,Dissolved Oxygen_percent saturation
2017-11-11T00:00:00,Caribou Harbour-Waterside,1351.0,45.75625,-62.770311,2017-06-24,2017-11-28,HOBO-10755242,1.0,float,7.895,
2017-11-11T00:15:00,Caribou Harbour-Waterside,1351.0,45.75625,-62.770311,2017-06-24,2017-11-28,HOBO-10755242,1.0,float,7.569,
2017-11-11T00:30:00,Caribou Harbour-Waterside,1351.0,45.75625,-62.770311,2017-06-24,2017-11-28,HOBO-10755242,1.0,float,7.368,
2017-11-11T00:45:00,Caribou Harbour-Waterside,1351.0,45.75625,-62.770311,2017-06-24,2017-11-28,HOBO-10755242,1.0,float,7.066,
2017-11-11T01:00:00,Caribou Harbour-Waterside,1351.0,45.75625,-62.770311,2017-06-24,2017-11-28,HOBO-10755242,1.0,float,7.015,
2017-11-11T01:15:00,Caribou Harbour-Waterside,1351.0,45.75625,-62.770311,2017-06-24,2017-11-28,HOBO-10755242,1.0,float,6.585,
2017-11-11T01:30:00,Caribou Harbour-Waterside,1351.0,45.75625,-62.770311,2017-06-24,2017-11-28,HOBO-10755242,1.0,float,6.864,
2017-11-11T01:45:00,Caribou Harbour-Waterside,1351.0,45.75625,-62.770311,2017-06-24,2017-11-28,HOBO-10755242,1.0,float,6.636,
2017-11-11T02:00:00,Caribou Harbour-Waterside,1351.0,45.75625,-62.770311,2017-06-24,2017-11-28,HOBO-10755242,1.0,float,5.847,
2017-11-11T02:15:00,Caribou Harbour-Waterside,1351.0,45.75625,-62.770311,2017-06-24,2017-11-28,HOBO-10755242,1.0,float,5.77,
2017-11-11T02:30:00,Caribou Harbour-Waterside,1351.0,45.75625,-62.770311,2017-06-24,2017-11-28,HOBO-10755242,1.0,float,5.616,
2017-11-11T02:45:00,Caribou Harbour-Waterside,1351.0,45.75625,-62.770311,2017-06-24,2017-11-28,HOBO-10755242,1.0,float,5.565,
2017-11-11T03:00:00,Caribou Harbour-Waterside,1351.0,45.75625,-62.770311,2017-06-24,2017-11-28,HOBO-10755242,1.0,float,5.102,
2017-11-11T03:15:00,Caribou Harbour-Waterside,1351.0,45.75625,-62.770311,2017-06-24,2017-11-28,HOBO-10755242,1.0,float,5.179,
2017-11-11T03:30:00,Caribou Harbour-Waterside,1351.0,45.75625,-62.770311,2017-06-24,2017-11-28,HOBO-10755242,1.0,float,5.024,
2017-11-11T03:45:00,Caribou Harbour-Waterside,1351.0,45.75625,-62.770311,2017-06-24,2017-11-28,HOBO-10755242,1.0,float,5.411,
2017-11-11T04:00:00,Caribou Harbour-Waterside,1351.0,45.75625,-62.770311,2017-06-24,2017-11-28,HOBO-10755242,1.0,float,5.411,
2017-11-11T04:15:00,Caribou Harbour-Waterside,1351.0,45.75625,-62.770311,2017-06-24,2017-11-28,HOBO-10755242,1.0,float,5.411,
2017-11-11T04:30:00,Caribou Harbour-Waterside,1351.0,45.75625,-62.770311,2017-06-24,2017-11-28,HOBO-10755242,1.0,float,5.411,
2017-11-11T04:45:00,Caribou Harbour-Waterside,1351.0,45.75625,-62.770311,2017-06-24,2017-11-28,HOBO-10755242,1.0,float,5.539,
2017-11-11T05:00:00,Caribou Harbour-Waterside,1351.0,45.75625,-62.770311,2017-06-24,2017-11-28,HOBO-10755242,1.0,float,5.36,
2017-11-11T05:15:00,Caribou Harbour-Waterside,1351.0,45.75625,-62.770311,2017-06-24,2017-11-28,HOBO-10755242,1.0,float,5.36,
2017-11-11T05:30:00,Caribou Harbour-Waterside,1351.0,45.75625,-62.770311,2017-06-24,2017-11-28,HOBO-10755242,1.0,float,5.36,
2017-11-11T05:45:00,Caribou Harbour-Waterside,1351.0,45.75625,-62.770311,2017-06-24,2017-11-28,HOBO-10755242,1.0,float,5.205,
2017-11-11T06:00:00,Caribou Harbour-Waterside,1351.0,45.75625,-62.770311,2017-06-24,2017-11-28,HOBO-10755242,1.0,float,5.128,
2017-11-11T06:15:00,Caribou Harbour-Waterside,1351.0,45.75625,-62.770311,2017-06-24,2017-11-28,HOBO-10755242,1.0,float,5.154,
2017-11-11T06:30:00,Caribou Harbour-Waterside,1351.0,45.75625,-62.770311,2017-06-24,2017-11-28,HOBO-10755242,1.0,float,5.05,
2017-11-11T06:45:00,Caribou Harbour-Waterside,1351.0,45.75625,-62.770311,2017-06-24,2017-11-28,HOBO-10755242,1.0,float,4.844,
2017-11-11T07:00:00,Caribou Harbour-Waterside,1351.0,45.75625,-62.770311,2017-06-24,2017-11-28,HOBO-10755242,1.0,float,4.844,
2017-11-11T07:15:00,Caribou Harbour-Waterside,1351.0,45.75625,-62.770311,2017-06-24,2017-11-28,HOBO-10755242,1.0,float,4.895,
2017-11-11T07:30:00,Caribou Harbour-Waterside,1351.0,45.75625,-62.770311,2017-06-24,2017-11-28,HOBO-10755242,1.0,float,4.895,
2017-11-11T07:45:00,Caribou Harbour-Waterside,1351.0,45.75625,-62.770311,2017-06-24,2017-11-28,HOBO-10755242,1.0,float,4.22,
2017-11-11T08:00:00,Caribou Harbour-Waterside,1351.0,45.75625,-62.770311,2017-06-24,2017-11-28,HOBO-10755242,1.0,float,3.985,
2017-11-11T08:15:00,Caribou Harbour-Waterside,1351.0,45.75625,-62.770311,2017-06-24,2017-11-28,HOBO-10755242,1.0,float,3.854,
2017-11-11T08:30:00,Caribou Harbour-Waterside,1351.0,45.75625,-62.770311,2017-06-24,2017-11-28,HOBO-10755242,1.0,float,3.801,
2017-11-11T08:45:00,Caribou Harbour-Waterside,1351.0,45.75625,-62.770311,2017-06-24,2017-11-28,HOBO-10755242,1.0,float,3.827,
2017-11-11T09:00:00,Caribou Harbour-Waterside,1351.0,45.75625,-62.770311,2017-06-24,2017-11-28,HOBO-10755242,1.0,float,3.459,
2017-11-11T09:15:00,Caribou Harbour-Waterside,1351.0,45.75625,-62.770311,2017-06-24,2017-11-28,HOBO-10755242,1.0,float,3.221,
2017-11-11T09:30:00,Caribou Harbour-Waterside,1351.0,45.75625,-62.770311,2017-06-24,2017-11-28,HOBO-10755242,1.0,float,3.089,
2017-11-11T09:45:00,Caribou Harbour-Waterside,1351.0,45.75625,-62.770311,2017-06-24,2017-11-28,HOBO-10755242,1.0,float,2.61,
2017-11-11T10:00:00,Caribou Harbour-Waterside,1351.0,45.75625,-62.770311,2017-06-24,2017-11-28,HOBO-10755242,1.0,float,2.45,
2017-11-11T10:15:00,Caribou Harbour-Waterside,1351.0,45.75625,-62.770311,2017-06-24,2017-11-28,HOBO-10755242,1.0,float,2.316,
2017-11-11T10:30:00,Caribou Harbour-Waterside,1351.0,45.75625,-62.770311,2017-06-24,2017-11-28,HOBO-10755242,1.0,float,2.128,
2017-11-11T10:45:00,Caribou Harbour-Waterside,1351.0,45.75625,-62.770311,2017-06-24,2017-11-28,HOBO-10755242,1.0,float,2.047,
2017-11-11T11:00:00,Caribou Harbour-Waterside,1351.0,45.75625,-62.770311,2017-06-24,2017-11-28,HOBO-10755242,1.0,float,1.886,
2017-11-11T11:15:00,Caribou Harbour-Waterside,1351.0,45.75625,-62.770311,2017-06-24,2017-11-28,HOBO-10755242,1.0,float,1.67,
2017-11-11T11:30:00,Caribou Harbour-Waterside,1351.0,45.75625,-62.770311,2017-06-24,2017-11-28,HOBO-10755242,1.0,float,1.398,
2017-11-11T11:45:00,Caribou Harbour-Waterside,1351.0,45.75625,-62.770311,2017-06-24,2017-11-28,HOBO-10755242,1.0,float,1.153,
2017-11-11T12:00:00,Caribou Harbour-Waterside,1351.0,45.75625,-62.770311,2017-06-24,2017-11-28,HOBO-10755242,1.0,float,0.962,
2017-11-11T12:15:00,Caribou Harbour-Waterside,1351.0,45.75625,-62.770311,2017-06-24,2017-11-28,HOBO-10755242,1.0,float,0.825,
2017-11-11T12:30:00,Caribou Harbour-Waterside,1351.0,45.75625,-62.770311,2017-06-24,2017-11-28,HOBO-10755242,1.0,float,0.797,
2017-11-11T12:45:00,Caribou Harbour-Waterside,1351.0,45.75625,-62.770311,2017-06-24,2017-11-28,HOBO-10755242,1.0,float,0.77,
2017-11-11T13:00:00,Caribou Harbour-Waterside,1351.0,45.75625,-62.770311,2017-06-24,2017-11-28,HOBO-10755242,1.0,float,0.962,
2017-11-11T13:15:00,Caribou Harbour-Waterside,1351.0,45.75625,-62.770311,2017-06-24,2017-11-28,HOBO-10755242,1.0,float,0.907,
2017-11-11T13:30:00,Caribou Harbour-Waterside,1351.0,45.75625,-62.770311,2017-06-24,2017-11-28,HOBO-10755242,1.0,float,0.989,
2017-11-11T13:45:00,Caribou Harbour-Waterside,1351.0,45.75625,-62.770311,2017-06-24,2017-11-28,HOBO-10755242,1.0,float,1.017,
2017-11-11T14:00:00,Caribou Harbour-Waterside,1351.0,45.75625,-62.770311,2017-06-24,2017-11-28,HOBO-10755242,1.0,float,1.208,
2017-11-11T14:15:00,Caribou Harbour-Waterside,1351.0,45.75625,-62.770311,2017-06-24,2017-11-28,HOBO-10755242,1.0,float,1.398,
2017-11-11T14:30:00,Caribou Harbour-Waterside,1351.0,45.75625,-62.770311,2017-06-24,2017-11-28,HOBO-10755242,1.0,float,1.534,
2017-11-11T14:45:00,Caribou Harbour-Waterside,1351.0,45.75625,-62.770311,2017-06-24,2017-11-28,HOBO-10755242,1.0,float,1.697,
2017-11-11T15:00:00,Caribou Harbour-Waterside,1351.0,45.75625,-62.770311,2017-06-24,2017-11-28,HOBO-10755242,1.0,float,1.886,
2017-11-11T15:15:00,Caribou Harbour-Waterside,1351.0,45.75625,-62.770311,2017-06-24,2017-11-28,HOBO-10755242,1.0,float,2.021,
2017-11-11T15:30:00,Caribou Harbour-Waterside,1351.0,45.75625,-62.770311,2017-06-24,2017-11-28,HOBO-10755242,1.0,float,2.155,
2017-11-11T15:45:00,Caribou Harbour-Waterside,1351.0,45.75625,-62.770311,2017-06-24,2017-11-28,HOBO-10755242,1.0,float,2.289,
2017-11-11T16:00:00,Caribou Harbour-Waterside,1351.0,45.75625,-62.770311,2017-06-24,2017-11-28,HOBO-10755242,1.0,float,2.423,
2017-11-11T16:15:00,Caribou Harbour-Waterside,1351.0,45.75625,-62.770311,2017-06-24,2017-11-28,HOBO-10755242,1.0,float,2.503,
2017-11-11T16:30:00,Caribou Harbour-Waterside,1351.0,45.75625,-62.770311,2017-06-24,2017-11-28,HOBO-10755242,1.0,float,2.637,
2017-11-11T16:45:00,Caribou Harbour-Waterside,1351.0,45.75625,-62.770311,2017-06-24,2017-11-28,HOBO-10755242,1.0,float,2.77,
2017-11-11T17:00:00,Caribou Harbour-Waterside,1351.0,45.75625,-62.770311,2017-06-24,2017-11-28,HOBO-10755242,1.0,float,2.903,
2017-11-11T17:15:00,Caribou Harbour-Waterside,1351.0,45.75625,-62.770311,2017-06-24,2017-11-28,HOBO-10755242,1.0,float,3.089,
2017-11-11T17:30:00,Caribou Harbour-Waterside,1351.0,45.75625,-62.770311,2017-06-24,2017-11-28,HOBO-10755242,1.0,float,3.958,
2017-11-11T17:45:00,Caribou Harbour-Waterside,1351.0,45.75625,-62.770311,2017-06-24,2017-11-28,HOBO-10755242,1.0,float,3.827,
2017-11-11T18:00:00,Caribou Harbour-Waterside,1351.0,45.75625,-62.770311,2017-06-24,2017-11-28,HOBO-10755242,1.0,float,4.141,
2017-11-11T18:15:00,Caribou Harbour-Waterside,1351.0,45.75625,-62.770311,2017-06-24,2017-11-28,HOBO-10755242,1.0,float,4.869,
2017-11-11T18:30:00,Caribou Harbour-Waterside,1351.0,45.75625,-62.770311,2017-06-24,2017-11-28,HOBO-10755242,1.0,float,5.462,
2017-11-11T18:45:00,Caribou Harbour-Waterside,1351.0,45.75625,-62.770311,2017-06-24,2017-11-28,HOBO-10755242,1.0,float,6.0,
2017-11-11T19:00:00,Caribou Harbour-Waterside,1351.0,45.75625,-62.770311,2017-06-24,2017-11-28,HOBO-10755242,1.0,float,6.026,
2017-11-11T19:15:00,Caribou Harbour-Waterside,1351.0,45.75625,-62.770311,2017-06-24,2017-11-28,HOBO-10755242,1.0,float,5.975,
2017-11-11T19:30:00,Caribou Harbour-Waterside,1351.0,45.75625,-62.770311,2017-06-24,2017-11-28,HOBO-10755242,1.0,float,5.898,
2017-11-11T19:45:00,Caribou Harbour-Waterside,1351.0,45.75625,-62.770311,2017-06-24,2017-11-28,HOBO-10755242,1.0,float,6.051,
2017-11-11T20:00:00,Caribou Harbour-Waterside,1351.0,45.75625,-62.770311,2017-06-24,2017-11-28,HOBO-10755242,1.0,float,6.026,
2017-11-11T20:15:00,Caribou Harbour-Waterside,1351.0,45.75625,-62.770311,2017-06-24,2017-11-28,HOBO-10755242,1.0,float,5.847,
2017-11-11T20:30:00,Caribou Harbour-Waterside,1351.0,45.75625,-62.770311,2017-06-24,2017-11-28,HOBO-10755242,1.0,float,5.693,
2017-11-11T20:45:00,Caribou Harbour-Waterside,1351.0,45.75625,-62.770311,2017-06-24,2017-11-28,HOBO-10755242,1.0,float,5.668,
2017-11-11T21:00:00,Caribou Harbour-Waterside,1351.0,45.75625,-62.770311,2017-06-24,2017-11-28,HOBO-10755242,1.0,float,5.642,
2017-11-11T21:15:00,Caribou Harbour-Waterside,1351.0,45.75625,-62.770311,2017-06-24,2017-11-28,HOBO-10755242,1.0,float,5.591,
2017-11-11T21:30:00,Caribou Harbour-Waterside,1351.0,45.75625,-62.770311,2017-06-24,2017-11-28,HOBO-10755242,1.0,float,5.514,
2017-11-11T21:45:00,Caribou Harbour-Waterside,1351.0,45.75625,-62.770311,2017-06-24,2017-11-28,HOBO-10755242,1.0,float,5.462,
2017-11-11T22:00:00,Caribou Harbour-Waterside,1351.0,45.75625,-62.770311,2017-06-24,2017-11-28,HOBO-10755242,1.0,float,4.869,
2017-11-11T22:15:00,Caribou Harbour-Waterside,1351.0,45.75625,-62.770311,2017-06-24,2017-11-28,HOBO-10755242,1.0,float,4.662,
2017-11-11T22:30:00,Caribou Harbour-Waterside,1351.0,45.75625,-62.770311,2017-06-24,2017-11-28,HOBO-10755242,1.0,float,4.506,
2017-11-11T22:45:00,Caribou Harbour-Waterside,1351.0,45.75625,-62.770311,2017-06-24,2017-11-28,HOBO-10755242,1.0,float,4.22,
2017-11-11T23:00:00,Caribou Harbour-Waterside,1351.0,45.75625,-62.770311,2017-06-24,2017-11-28,HOBO-10755242,1.0,float,4.011,
2017-11-11T23:15:00,Caribou Harbour-Waterside,1351.0,45.75625,-62.770311,2017-06-24,2017-11-28,HOBO-10755242,1.0,float,4.011,
2017-11-11T23:30:00,Caribou Harbour-Waterside,1351.0,45.75625,-62.770311,2017-06-24,2017-11-28,HOBO-10755242,1.0,float,3.88,
2017-11-11T23:45:00,Caribou Harbour-Waterside,1351.0,45.75625,-62.770311,2017-06-24,2017-11-28,HOBO-10755242,1.0,float,3.801,
